Hourly Data Report for January 27, 2019

LONDON CS
ONTARIO
Current Station Operator: ECCC - MSC

43°02'00.000" N
81°09'00.000" W
278.00 m
6144478
71622
WSN

Download Data

Hourly Data (January 2019)
Hourly Data Report for January 27, 2019
TIME Temp Definition
°C
Dew Point Definition
°C
Rel Hum Definition
%
Wind Dir Definition
10's deg

Wind Spd Definition
km/h
Visibility Definition
km
Stn Press Definition
kPa
Hmdx Definition


Wind Chill Definition


Weather Definition


00:00 -8.4 -9.6 91 LegendMM LegendMM   97.84     LegendNANA
01:00 -8.4 -9.6 91 LegendMM LegendMM   97.61     LegendNANA
02:00 -8.2 -9.3 91 LegendMM LegendMM   97.44     LegendNANA
03:00 -7.9 -9.0 92 LegendMM LegendMM   97.33     LegendNANA
04:00 -8.2 -9.5 90 LegendMM LegendMM   97.32     LegendNANA
05:00 -8.6 -9.9 90 LegendMM LegendMM   97.42     LegendNANA
06:00 -9.9 -11.8 86 LegendMM LegendMM   97.57     LegendNANA
07:00 -9.9 -12.3 83 LegendMM LegendMM   97.69     LegendNANA
08:00 -10.4 -12.8 82 LegendMM LegendMM   97.79     LegendNANA
09:00 -10.5 -13.1 81 LegendMM LegendMM   97.91     LegendNANA
10:00 -11.3 -14.9 75 LegendMM LegendMM   97.97     LegendNANA
11:00 -11.0 -17.5 59 LegendMM LegendMM   98.10     LegendNANA
12:00 -10.7 -17.4 58 LegendMM LegendMM   98.13     LegendNANA
13:00 -10.8 -17.0 60 LegendMM LegendMM   98.12     LegendNANA
14:00 -11.0 -14.4 76 LegendMM LegendMM   98.15     LegendNANA
15:00 -11.1 -16.6 64 LegendMM LegendMM   98.12     LegendNANA
16:00 -11.2 -17.4 60 LegendMM LegendMM   98.19     LegendNANA
17:00 -11.5 -17.3 62 LegendMM LegendMM   98.28     LegendNANA
18:00 -14.0 -18.2 71 LegendMM LegendMM   98.34     LegendNANA
19:00 -14.1 -18.3 70 LegendMM LegendMM   98.39     LegendNANA
20:00 -15.6 -19.3 73 LegendMM LegendMM   98.45     LegendNANA
21:00 -15.9 -19.3 75 LegendMM LegendMM   98.48     LegendNANA
22:00 -15.4 -19.6 70 LegendMM LegendMM   98.52     LegendNANA
23:00 -16.8 -19.9 77 LegendMM LegendMM   98.48     LegendNANA

Notes on Data Quality.

Legend

  • E = Estimated
  • M = Missing
  • NA = Not Available*
  • [empty] = Indicates an unobserved value
Date modified: